Location: Nairn
(57.5833°N, 3.8667°W)
Time: 11:17:20
(UTC+00:00)

Transit 2A Rocket - All Passes

Search period start: 30 November 2020 00:00
Search period end: 10 December 2020 00:00
Orbit: 588 x 914 km, 66.7° (Epoch: 29 November)

Date Brightness Start Highest point End Pass type
(mag) Time Alt. Az. Time Alt. Az. Time Alt. Az.
30 Nov - 01:07:49 10° SSE 01:12:03 21° ESE 01:16:04 10° ENE visible
30 Nov - 02:48:09 10° SW 02:54:00 73° SE 02:59:24 10° NE visible
30 Nov - 04:31:28 10° W 04:36:58 45° NNW 04:42:01 10° NE visible
30 Nov - 06:15:48 10° WNW 06:20:40 31° N 06:25:09 10° ENE visible
30 Nov - 07:59:24 10° NW 08:04:26 41° NNE 08:09:00 10° E daylight
30 Nov - 09:42:17 10° NW 09:47:25 75° SW 09:52:03 10° SE daylight
30 Nov - 11:25:55 10° WNW 11:29:07 18° WSW 11:32:10 10° SSW daylight
01 Dec - 00:26:59 10° SE 00:29:49 14° ESE 00:32:36 10° ENE night (unlit)
01 Dec - 02:05:47 10° SSW 02:11:27 52° SE 02:16:44 10° NE visible
01 Dec - 03:48:30 10° WSW 03:54:10 56° NNW 03:59:23 10° NE visible
01 Dec - 05:32:45 10° WNW 05:37:43 32° N 05:42:17 10° NE visible
01 Dec - 07:16:38 10° NW 07:21:32 35° NNE 07:26:01 10° E visible
01 Dec - 08:59:37 10° NW 09:04:49 79° NE 09:09:30 10° SE daylight
01 Dec - 10:42:46 10° WNW 10:46:54 26° WSW 10:50:43 10° S daylight
02 Dec - 01:23:40 10° S 01:29:00 37° ESE 01:33:59 10° NE visible
02 Dec - 03:05:39 10° SW 03:11:26 72° NW 03:16:46 10° NE visible
02 Dec - 04:49:40 10° W 04:54:47 35° NNW 04:59:31 10° NE visible
02 Dec - 06:33:48 10° NW 06:38:37 32° N 06:43:02 10° ENE visible
02 Dec - 08:16:58 10° NW 08:22:07 59° NE 08:26:47 10° ESE daylight
02 Dec - 09:59:54 10° NW 10:04:34 39° WSW 10:08:50 10° S daylight
03 Dec - 00:41:53 10° S 00:46:38 26° ESE 00:51:07 10° ENE night (unlit)
03 Dec - 02:22:56 10° SW 02:28:47 87° SE 02:34:09 10° NE visible
03 Dec - 04:06:35 10° W 04:11:54 40° NNW 04:16:48 10° NE visible
03 Dec - 05:50:52 10° WNW 05:55:40 30° N 06:00:05 10° ENE visible
03 Dec - 07:34:18 10° NW 07:39:20 46° NNE 07:43:56 10° ESE visible
03 Dec - 09:17:09 10° NW 09:22:08 59° SW 09:26:39 10° SSE daylight
03 Dec - 11:01:26 10° WNW 11:03:35 13° WSW 11:05:41 10° SW daylight
04 Dec - 00:00:34 10° SSE 00:04:21 18° ESE 00:07:59 10° ENE night (unlit)
04 Dec - 01:40:25 10° SSW 01:46:12 65° SE 01:51:31 10° NE visible
04 Dec - 03:23:33 10° WSW 03:29:04 48° NNW 03:34:09 10° NE visible
04 Dec - 05:07:52 10° WNW 05:12:43 31° N 05:17:11 10° ENE visible
04 Dec - 06:51:34 10° NW 06:56:30 38° NNE 07:00:59 10° E visible
04 Dec - 08:34:28 10° NW 08:39:36 84° SW 08:44:13 10° SE daylight
04 Dec - 10:17:53 10° WNW 10:21:25 20° WSW 10:24:46 10° SSW daylight
04 Dec - 23:20:13 10° SE 23:22:10 12° ESE 23:24:05 10° E night (unlit)
05 Dec - 00:58:08 10° SSW 01:03:41 46° SE 01:08:50 10° NE night (unlit)
05 Dec - 02:40:36 10° WSW 02:46:17 60° NW 02:51:31 10° NE visible
05 Dec - 04:24:48 10° WNW 04:29:46 33° NNW 04:34:21 10° NE visible
05 Dec - 06:08:47 10° NW 06:13:36 33° NNE 06:18:00 10° E visible
05 Dec - 07:51:49 10° NW 07:56:57 71° NE 08:01:36 10° ESE visible
05 Dec - 09:34:51 10° WNW 09:39:10 30° WSW 09:43:08 10° S daylight
06 Dec - 00:16:08 10° S 00:21:15 33° ESE 00:26:03 10° ENE night (unlit)
06 Dec - 01:57:48 10° SW 02:03:35 78° NW 02:08:54 10° NE visible
06 Dec - 03:41:42 10° W 03:46:51 36° NNW 03:51:36 10° NE visible
06 Dec - 05:25:55 10° NW 05:30:40 31° N 05:35:02 10° ENE visible
06 Dec - 07:09:09 10° NW 07:14:13 53° NNE 07:18:49 10° ESE visible
06 Dec - 08:52:02 10° NW 08:56:47 45° WSW 09:01:08 10° SSE daylight
06 Dec - 23:34:29 10° SSE 23:38:55 23° ESE 23:43:07 10° ENE night (unlit)
07 Dec - 01:15:09 10° SW 01:20:57 79° SE 01:26:17 10° NE night (unlit)
07 Dec - 02:58:38 10° W 03:03:59 42° NNW 03:08:54 10° NE visible
07 Dec - 04:42:57 10° WNW 04:47:43 30° N 04:52:06 10° ENE visible
07 Dec - 06:26:27 10° NW 06:31:25 43° NNE 06:35:56 10° E visible
07 Dec - 08:09:19 10° NW 08:14:19 67° SW 08:18:51 10° SSE daylight
07 Dec - 09:53:12 10° WNW 09:55:54 15° WSW 09:58:30 10° SW daylight
07 Dec - 22:53:25 10° SE 22:56:40 16° ESE 22:59:48 10° ENE night (unlit)
08 Dec - 00:32:43 10° SSW 00:38:24 58° SE 00:43:38 10° NE night (unlit)
08 Dec - 02:15:38 10° WSW 02:21:11 52° NNW 02:26:15 10° NE visible
08 Dec - 03:59:55 10° WNW 04:04:45 31° N 04:09:13 10° NE visible
08 Dec - 05:43:43 10° NW 05:48:33 36° NNE 05:52:59 10° E visible
08 Dec - 07:26:38 10° NW 07:31:44 86° NE 07:36:21 10° SE visible
08 Dec - 09:09:54 10° WNW 09:13:42 23° WSW 09:17:16 10° SSW daylight
08 Dec - 23:50:32 10° S 23:55:55 41° ESE 00:00:56 10° NE night (unlit)
09 Dec - 01:32:43 10° WSW 01:38:26 66° NW 01:43:38 10° NE visible
09 Dec - 03:16:50 10° WNW 03:21:49 33° NNW 03:26:25 10° NE visible
09 Dec - 05:00:54 10° NW 05:05:39 32° N 05:10:00 10° ENE visible
09 Dec - 06:43:59 10° NW 06:49:04 64° NE 06:53:40 10° ESE visible
09 Dec - 08:26:57 10° NW 08:31:24 35° WSW 08:35:30 10° S daylight
09 Dec - 23:08:39 10° S 23:13:31 29° ESE 23:18:07 10° ENE night (unlit)
